This is the latest recevied weather packets stored in our database for station/object EA1HTW-13. If no packets are shown the sender has not sent any weather packets the latest 10 day(s).
| Time | Temp. | Humidity | Pressure | Rain* | Wind** | Luminosity | Snow |
|---|---|---|---|---|---|---|---|
| 1777749254 | 16.67° C | 72% | 1007.8 hPa | 0 mm | - | - | - |
| 1777748715 | 16.67° C | 71% | 1007.5 hPa | 0 mm | - | - | - |
| 1777748174 | 17.22° C | 71% | 1007.7 hPa | 0 mm | - | - | - |
| 1777747634 | 17.22° C | 71% | 1007.5 hPa | 0 mm | - | - | - |
| 1777747094 | 17.22° C | 71% | 1007.7 hPa | 0 mm | - | - | - |
| 1777746555 | 17.22° C | 71% | 1007.7 hPa | 0 mm | - | - | - |
| 1777746014 | 17.78° C | 67% | 1007.6 hPa | 0 mm | - | - | - |
| 1777745474 | 17.78° C | 66% | 1007.8 hPa | 0 mm | - | - | - |
| 1777744934 | 18.33° C | 64% | 1007.6 hPa | 0 mm | - | - | - |
| 1777744396 | 18.33° C | 62% | 1007.6 hPa | 0 mm | - | - | - |
| 1777743854 | 18.33° C | 62% | 1007.7 hPa | 0 mm | - | - | - |
| 1777743314 | 18.89° C | 64% | 1007.9 hPa | 0 mm | - | - | - |
| 1777742774 | 18.89° C | 64% | 1007.7 hPa | 0 mm | - | - | - |
| 1777742234 | 18.89° C | 63% | 1007.6 hPa | 0 mm | - | - | - |
| 1777741695 | 18.89° C | 64% | 1007.7 hPa | 0 mm | - | - | - |
| 1777741154 | 18.33° C | 65% | 1007.5 hPa | 0 mm | - | - | - |
| 1777740613 | 18.33° C | 65% | 1007.6 hPa | 0 mm | - | - | - |
| 1777740075 | 18.33° C | 66% | 1007.6 hPa | 0 mm | - | - | - |
| 1777739534 | 18.33° C | 65% | 1007.6 hPa | 0 mm | - | - | - |
| 1777738994 | 18.33° C | 64% | 1007.6 hPa | 0 mm | - | - | - |
| 1777738454 | 18.89° C | 62% | 1007.6 hPa | 0 mm | - | - | - |
| 1777737915 | 19.44° C | 61% | 1007.7 hPa | 0 mm | - | - | - |
| 1777737375 | 19.44° C | 61% | 1007.8 hPa | 0 mm | - | - | - |
| 1777736834 | 19.44° C | 62% | 1007.8 hPa | 0 mm | - | - | - |
| 1777736294 | 19.44° C | 64% | 1007.9 hPa | 0 mm | - | - | - |
* Rain latest hour (hover to see other rain measurements)
** Current wind speed in m/s (hover to see current wind gust speed)